Bob Baker Memorial Airport
PAIK : rendu visible

Aérodrome :











RETROUVEZ-NOUS SUR...

 
LOGIN :

S'inscrire | Disclaimer

   EN    FR    IT 

 









Légende :    VFR   VFR Marginal   IFR   IFR Intensif   IFR Très Intensif
Visi : 
Plafond : 
>= 8 km
>= 3000ft
5 à 8 km
1000 à 3000 ft
1500m à 5 km
500 à 1000 ft
800 à 1500m
200 à 500 ft
< 800m
< 200 ft
Symboles :   Orages  Brouillard  Fortes neiges  Fortes précipitations  Vent > 20 kt






- Altitude de l'aérodrome : 166 ft
- Code IATA : IAN


PAIK - Bob Baker Memorial

DERNIER METAR :
  • 120956Z AUTO 00000KT 10SM OVC100 14/10 A2975 RMK AO2 SLP076 T01440100

METARs EXPIRÉS :
  • 120856Z AUTO 20004KT 10SM BKN100 16/08 A2976 RMK AO2 SLP077 T01610078 402170083 56006
  • 120756Z AUTO 26007KT 10SM CLR 17/09 A2976 RMK AO2 SLP079 T01670089

TAF N/A
FIR PAZA / Amérique du Nord



MET'MAP, la Météo Aéronautique d'un coup d'oeil ! - Copyright ORBIFLY Décembre 2007 - Disclaimer

ORBIFLY MET'MAP TEAM :

Programmation & Développement : Alexandra Zaïnal
Sur une idée originale de : Baudouin d'Aumeries
Assistance à la programmation : Marc-Olivier Méhu
Soutien technique & logistique : Manuel Goepfert

Contact : metmap@orbifly.com




SOURCES & CREDITS :

   NOAA       Earth
Advisory